Torna al catalogo

STARLINK-36937

AttivoComunicazioniSSO
NORAD 68113·PAYLOAD·🇺🇸 United States

Lanciato Mar 8, 2026 da Vandenberg Space Force Base

Loading…

Prossimi Passaggi (prossime 24 ore)

TLE

AggiornatoSource: CelesTrak SupGP

Epoca: Sep 15, 2026, 03:23 UTC

1 68113C 26044N   26258.14145833  .00015725  00000+0  48827-3 0  2586
2 68113  97.2851 217.1719 0001699  91.5801  21.7802 15.33422503    19

Traccia STARLINK-36937 in tempo reale con AllMySat

Download on the App Store